[[{"header":{"parameterUnit":"m.s-1","parameterCategory":1,"la1":30.2991,"la2":30.254,"lo1":-89.0895,"lo2":-89.0444,"dy":0.0017,"dx":0.0017,"nx":28,"ny":28,"refTime":"2024-10-02T09:00:00:Z","depth":0,"parameterNumber":2,"parameterNumberName":"U-component_of_WINDS"},"data":[0,0,0,0,0,0,0,0,0,0,0,0,0,0,0,0,0,0,0,0,0,0,0,0,0,0,0,0,0,0,0,0,0,0,0,0,0,0,0,0,0,0,0,0,0,0,0,0,0,0,0,0,0,0,0,0,0,0,-6.4334,-6.4335,0,-6.4358,-6.4358,-6.4358,-6.4184,-6.4179,-6.4174,-6.4169,-6.4195,-6.42,-6.4205,0,0,0,0,0,0,0,0,0,0,0,0,0,-6.414,-6.4144,-6.4334,-6.4335,-6.4335,-6.4358,-6.4358,-6.4359,-6.4185,-6.4179,-6.4173,-6.4167,-6.4193,-6.4199,-6.4205,0,0,0,0,0,0,0,0,0,0,0,0,0,-6.42,-6.4146,-6.4334,-6.4251,-6.4244,-6.4358,-6.4358,-6.4359,-6.4186,-6.4178,-6.4171,-6.4164,-6.4191,-6.4198,-6.4206,-6.4402,0,0,-6.423,-6.4234,0,0,0,0,0,0,0,0,-6.4197,-6.4207,-6.4263,-6.4257,-6.4249,-6.426,-6.4299,-6.4373,-6.4188,-6.4208,-6.4169,-6.4161,-6.4223,-6.4227,-6.4248,-6.4403,-6.4404,-6.4231,-6.4236,-6.4239,-6.4241,0,0,0,0,0,0,0,-6.4193,-6.4205,-6.4344,-6.4264,-6.4255,-6.4213,-6.4213,-6.4312,-6.4256,-6.4206,-6.4193,-6.4198,-6.4217,-6.4241,-6.4247,-6.4404,-6.4231,-6.4238,-6.4243,-6.4246,-6.4721,-6.4728,0,0,0,0,0,0,-6.42,-6.4203,-6.4343,-6.4344,-6.4204,-6.4222,-6.4223,-6.4264,-6.4255,-6.4246,-6.4204,-6.419,-6.4231,-6.4238,-6.4247,-6.4474,-6.4239,-6.4246,-6.4251,-6.4713,-6.4722,-6.4731,0,0,0,0,0,0,-6.4196,-6.4214,-6.4342,-6.427,-6.4283,-6.4233,-6.4281,-6.4268,-6.4291,-6.4254,-6.4243,-6.4238,-6.4225,-6.4236,-6.4364,-6.4472,-6.425,-6.4257,-6.4704,-6.4716,-6.4727,-6.493,0,0,0,0,0,0,-6.4191,-6.4214,-6.4287,-6.4273,-6.4288,-6.4459,-6.4288,-6.4274,-6.4305,-6.4287,-6.4283,-6.4275,-6.422,-6.4354,-6.4372,-6.4479,-6.4263,-6.4693,-6.4709,-6.4723,-6.4914,-6.4948,-6.4977,0,0,0,0,0,-6.4185,-6.4344,-6.4292,-6.4309,-6.4378,-6.4465,-6.4473,-6.4407,-6.4315,-6.4388,-6.4364,-6.4275,-6.4459,-6.4368,-6.4388,-6.4499,-6.4686,-6.4705,-6.4722,-6.4899,-6.4941,-6.4976,0,0,0,0,0,0,-6.4371,-6.434,-6.4282,-6.4441,-6.4457,-6.4435,-6.4525,-6.4453,-6.4496,-6.4477,-6.4393,-6.4394,-6.4536,-6.453,-6.443,-6.4687,-6.4556,-6.4579,-6.4685,-6.4724,-6.4755,-6.4751,-6.427,0,0,0,0,0,-6.4431,-6.4504,-6.4473,-6.4616,-6.4627,-6.4576,-6.4611,-6.4559,-6.4572,-6.4578,-6.4563,-6.458,-6.4641,-6.4683,-6.4737,-6.4914,-6.4909,-6.5,-6.5031,-6.5057,-6.5077,-6.5168,-6.5208,-6.4789,-6.4789,-6.4789,0,0,-6.4555,-6.4547,-6.4598,-6.4654,-6.466,-6.4737,-6.4583,-6.4671,-6.4727,-6.4591,-6.471,-6.4701,-6.4714,-6.4867,-6.4934,-6.4867,-6.5192,-6.508,-6.5101,-6.5106,-6.5191,-6.523,-6.5266,-6.4801,-6.4799,-6.4797,0,0,-6.4818,-6.4821,-6.4939,-6.4949,-6.4961,-6.4926,-6.4955,-6.4945,-6.4933,-6.5052,-6.4951,-6.5018,-6.5126,-6.5138,-6.5159,-6.5431,-6.535,-6.5452,-6.5615,-6.5705,-6.5738,-6.5767,-6.5861,-6.5897,-6.5472,-6.5472,-6.5473,0,-6.497,-6.5081,-6.501,-6.5104,-6.5131,-6.5014,-6.5133,-6.5146,-6.5176,-6.5197,-6.5123,-6.5255,-6.5256,-6.5409,-6.5476,-6.5498,-6.5527,-6.5449,-6.5739,-6.5767,-6.5793,-6.5882,-6.5918,-6.5484,-6.5483,-6.5482,-6.5481,0,-6.5266,-6.5346,-6.5441,-6.5471,-6.5509,-6.5617,-6.5561,-6.5609,-6.5555,-6.5528,-6.5651,-6.5648,-6.5699,-6.5733,-6.5681,-6.588,-6.5838,-6.5754,-6.5619,-6.5846,-6.5928,-6.5962,-6.5501,-6.5497,-6.5494,-6.5491,0,0,-6.5644,-6.5635,-6.567,-6.5682,-6.5688,-6.5748,-6.5851,-6.59,-6.5942,-6.5968,-6.605,-6.6146,-6.6067,-6.6091,-6.604,-6.6121,-6.6334,-6.6025,-6.6024,-6.608,-6.655,-6.6611,-6.6652,-6.6282,-6.6288,-6.6293,-6.6548,0,-6.5898,-6.607,-6.601,-6.6186,-6.6258,-6.6149,-6.6238,-6.6251,-6.623,-6.6289,-6.6265,-6.6333,-6.6226,-6.6239,-6.6314,-6.6292,-6.6426,-6.6273,-6.6357,-6.636,-6.6352,-6.6695,-6.6759,-6.7,-6.658,-6.6586,-6.659,0,-6.6217,-6.6255,-6.6438,-6.6431,-6.6459,-6.654,-6.658,-6.6638,-6.6652,-6.6631,-6.666,-6.6592,-6.6692,-6.6562,-6.6698,-6.6596,-6.6627,-6.6622,-6.663,-6.6631,-6.6486,-6.6703,-6.7075,-6.711,-6.664,-6.6636,-6.6632,0,-6.647,-6.6567,-6.6688,-6.6703,-6.6699,-6.6758,-6.6759,-6.6766,-6.68,-6.6837,-6.6858,-6.6907,-6.6933,-6.6973,-6.692,-6.6831,-6.7064,-6.693,-6.7048,-6.705,-6.7098,-6.7095,-6.7477,-6.7127,-6.7126,-6.7125,-6.7125,0,-6.6758,-6.6873,-6.6802,-6.6876,-6.7003,-6.6934,-6.7061,-6.705,-6.7058,-6.7128,-6.7039,-6.7107,-6.7036,-6.7098,-6.7059,-6.7177,-6.719,-6.7176,-6.7163,-6.7181,-6.7183,-6.7197,-6.7178,-6.7135,-6.7133,-6.7131,-6.7129,0,-6.7059,-6.7016,-6.7141,-6.7128,-6.7127,-6.7221,-6.7209,-6.7278,-6.7252,-6.7343,-6.736,-6.732,-6.7388,-6.7341,-6.7411,-6.7384,-6.7538,-6.7504,-6.7533,-6.7522,-6.7642,-6.763,-6.8043,-6.8093,-6.7714,-6.7718,-6.7721,0,-6.7243,-6.7329,-6.7326,-6.7366,-6.7373,-6.7441,-6.7475,-6.7412,-6.7451,-6.7475,-6.7541,-6.7602,-6.7646,-6.7762,-6.7738,-6.7791,-6.7755,-6.7897,-6.7762,-6.7778,-6.7754,-6.7747,-6.7755,-6.7923,-6.7927,-6.7931,-6.7934,0,-6.7574,-6.7549,-6.7601,-6.7648,-6.7691,-6.7725,-6.7751,-6.779,-6.7726,-6.7776,-6.7845,-6.788,-6.7951,-6.8012,-6.8057,-6.8058,-6.7986,-6.7977,-6.8006,-6.8024,-6.8035,-6.8027,-6.7602,-6.7967,-6.7963,-6.7961,-6.7959,-6.7958,-6.7819,-6.789,-6.7899,-6.7961,-6.7974,-6.8001,-6.8065,-6.8047,-6.8104,-6.8155,-6.8116,-6.8198,-6.8211,-6.8262,-6.8274,-6.8337,-6.8279,-6.8323,-6.8333,-6.8344,-6.8359,-6.803,-6.8346,-6.8345,-6.8344,-6.8343,-6.8342,0,-6.8142,-6.8142,-6.8201,-6.824,-6.8289,-6.8219,-6.8245,-6.829,-6.8363,-6.8381,-6.8428,-6.8508,-6.8568,-6.8551,-6.8604,-6.8658,-6.8626,-6.8674,-6.8667,-6.8668,-6.8409,-6.8376,-6.8699,-6.8699,-6.8699,-6.8699,-6.8699,-6.8699,-6.8315,-6.8431,-6.8408,-6.853,-6.853,-6.8609,-6.8629,-6.8654,-6.8668,-6.8761,-6.881,-6.8799,-6.8803,-6.8857,-6.8909,-6.8902,-6.8924,-6.8984,-6.8965,-6.8722,-6.8687,-6.8653,-6.8622,-6.899,-6.8991,-6.9218,-6.9221,-6.9222]},{"header":{"parameterUnit":"m.s-1","parameterCategory":1,"la1":30.2991,"la2":30.254,"lo1":-89.0895,"lo2":-89.0444,"dy":0.0017,"dx":0.0017,"nx":28,"ny":28,"refTime":"2024-10-02T09:00:00:Z","depth":0,"parameterNumber":3,"parameterNumberName":"V-component_of_WINDS"},"data":[0,0,0,0,0,0,0,0,0,0,0,0,0,0,0,0,0,0,0,0,0,0,0,0,0,0,0,0,0,0,0,0,0,0,0,0,0,0,0,0,0,0,0,0,0,0,0,0,0,0,0,0,0,0,0,0,0,0,0.4131,0.4131,0,0.4152,0.4152,0.4152,0.4129,0.4128,0.4127,0.4126,0.4146,0.4147,0.4149,0,0,0,0,0,0,0,0,0,0,0,0,0,0.4071,0.4072,0.4131,0.4131,0.4131,0.4152,0.4152,0.4152,0.4129,0.4128,0.4127,0.4126,0.4146,0.4147,0.4149,0,0,0,0,0,0,0,0,0,0,0,0,0,0.4095,0.4072,0.4131,0.4122,0.4122,0.4152,0.4152,0.4152,0.4129,0.4128,0.4127,0.4126,0.4145,0.4147,0.4149,0.4188,0,0,0.4155,0.4156,0,0,0,0,0,0,0,0,0.4093,0.4097,0.4123,0.4123,0.4122,0.4136,0.4138,0.4164,0.413,0.4126,0.4126,0.4125,0.4144,0.4146,0.4153,0.4189,0.4189,0.4155,0.4157,0.4157,0.4158,0,0,0,0,0,0,0,0.4092,0.4096,0.4139,0.4124,0.4123,0.4117,0.4119,0.4143,0.4142,0.4127,0.4125,0.4128,0.4143,0.4151,0.4153,0.419,0.4155,0.4157,0.4158,0.4159,0.4261,0.4263,0,0,0,0,0,0,0.4091,0.4095,0.4138,0.414,0.4104,0.412,0.4122,0.4133,0.4142,0.4142,0.4129,0.4127,0.4148,0.4151,0.4154,0.4202,0.4157,0.4159,0.4161,0.426,0.4262,0.4263,0,0,0,0,0,0,0.409,0.4095,0.4138,0.4117,0.4122,0.4122,0.4135,0.4134,0.4142,0.4144,0.4143,0.4137,0.4147,0.4151,0.418,0.4202,0.416,0.4162,0.4258,0.4261,0.4263,0.4297,0,0,0,0,0,0,0.4088,0.4095,0.411,0.4117,0.4123,0.4164,0.4136,0.4136,0.4146,0.4143,0.4151,0.4151,0.4146,0.4177,0.4182,0.4204,0.4164,0.4256,0.4259,0.4262,0.4294,0.43,0.4305,0,0,0,0,0,0.4086,0.4117,0.411,0.4116,0.4141,0.4165,0.4168,0.4163,0.4147,0.4162,0.4164,0.4151,0.4198,0.4181,0.4186,0.4208,0.4255,0.4258,0.4262,0.4291,0.4299,0.4305,0,0,0,0,0,0,0.4111,0.4118,0.4111,0.4145,0.4155,0.4161,0.418,0.4171,0.4185,0.4181,0.4173,0.4175,0.4207,0.421,0.419,0.4248,0.4224,0.4229,0.4245,0.4252,0.4258,0.4257,0.4165,0,0,0,0,0,0.412,0.414,0.4145,0.4175,0.418,0.4179,0.4189,0.4185,0.4194,0.4198,0.4202,0.4211,0.4229,0.424,0.4256,0.4294,0.4296,0.4312,0.4318,0.4322,0.4327,0.435,0.4358,0.4275,0.4275,0.4275,0,0,0.414,0.4146,0.4159,0.418,0.4187,0.4208,0.4183,0.4205,0.422,0.4201,0.423,0.4233,0.4243,0.4278,0.4293,0.4282,0.4351,0.4327,0.4331,0.4333,0.4354,0.4362,0.4369,0.4277,0.4277,0.4276,0,0,0.4187,0.4193,0.422,0.4228,0.424,0.424,0.4246,0.4254,0.4256,0.4285,0.4272,0.429,0.432,0.4328,0.4337,0.4389,0.4379,0.4395,0.4425,0.4447,0.4454,0.446,0.4481,0.4488,0.4399,0.4399,0.4399,0,0.421,0.4241,0.4235,0.4259,0.427,0.4254,0.4282,0.429,0.4306,0.4314,0.43,0.4339,0.4344,0.4382,0.4396,0.4402,0.441,0.4394,0.4454,0.4459,0.4465,0.4485,0.4492,0.4401,0.4401,0.44,0.44,0,0.427,0.4291,0.4312,0.433,0.4342,0.4368,0.4366,0.4379,0.4374,0.4375,0.4406,0.4412,0.4431,0.4439,0.4433,0.4477,0.4469,0.4455,0.4431,0.4475,0.4494,0.4501,0.4404,0.4403,0.4402,0.4402,0,0,0.4332,0.4348,0.4356,0.4365,0.4378,0.4394,0.442,0.4439,0.4452,0.4463,0.4485,0.4512,0.4499,0.4509,0.4504,0.4523,0.4568,0.4506,0.4507,0.452,0.4619,0.4631,0.464,0.456,0.4561,0.4562,0.4619,0,0.4382,0.4427,0.4424,0.4467,0.4488,0.4475,0.4497,0.4508,0.451,0.4528,0.453,0.455,0.4531,0.4537,0.4555,0.4558,0.4588,0.4554,0.4582,0.4583,0.4582,0.4649,0.4662,0.4715,0.4626,0.4627,0.4628,0,0.4445,0.4461,0.4507,0.4519,0.4528,0.4548,0.4567,0.4584,0.4596,0.4596,0.4608,0.46,0.4627,0.4602,0.464,0.4617,0.4628,0.4631,0.4633,0.4637,0.4609,0.4657,0.4731,0.474,0.4639,0.4638,0.4637,0,0.4489,0.4522,0.4555,0.4562,0.4576,0.4592,0.4598,0.4609,0.4621,0.4637,0.4645,0.4663,0.4674,0.4688,0.4686,0.4668,0.4725,0.4699,0.4727,0.4727,0.4741,0.474,0.482,0.4745,0.4745,0.4744,0.4744,0,0.4546,0.4575,0.4575,0.4595,0.4628,0.4624,0.4656,0.4661,0.4671,0.4692,0.4681,0.4701,0.4696,0.4716,0.4714,0.4747,0.4751,0.4752,0.4752,0.4755,0.4755,0.4763,0.476,0.4747,0.4746,0.4746,0.4745,0,0.4601,0.4602,0.4637,0.4649,0.4652,0.4676,0.4686,0.4705,0.4707,0.4734,0.474,0.4743,0.4766,0.4765,0.479,0.4789,0.483,0.4824,0.4827,0.4826,0.4855,0.4853,0.4944,0.4957,0.4872,0.4873,0.4873,0,0.4638,0.4661,0.4675,0.4689,0.4698,0.472,0.4733,0.473,0.4744,0.4761,0.4779,0.4801,0.4819,0.4857,0.4861,0.4881,0.4877,0.4908,0.488,0.4883,0.488,0.488,0.4883,0.4913,0.4914,0.4915,0.4916,0,0.4705,0.4705,0.4725,0.4746,0.4763,0.4779,0.4793,0.4805,0.4804,0.4821,0.4845,0.4859,0.4887,0.491,0.493,0.4936,0.4927,0.4924,0.4932,0.4936,0.4938,0.494,0.4844,0.4923,0.4922,0.4921,0.4921,0.4921,0.4753,0.4774,0.4789,0.4812,0.4823,0.4838,0.4858,0.4862,0.4883,0.4906,0.4903,0.4931,0.4944,0.4969,0.4978,0.5,0.4989,0.5,0.5003,0.5006,0.5011,0.4933,0.5003,0.5003,0.5003,0.5002,0.5002,0,0.4822,0.4831,0.4852,0.4875,0.4893,0.4883,0.4899,0.4916,0.4941,0.4954,0.4973,0.5002,0.5025,0.5032,0.5054,0.507,0.5067,0.5076,0.5076,0.5078,0.5018,0.501,0.5079,0.5079,0.5079,0.5079,0.5079,0.5079,0.4859,0.4895,0.4897,0.4938,0.4946,0.4975,0.4985,0.4999,0.501,0.5044,0.5063,0.5068,0.5079,0.5102,0.5123,0.5124,0.5134,0.5146,0.5146,0.509,0.5082,0.5075,0.5067,0.5147,0.5147,0.5204,0.5205,0.5205]}]]